Content
SEND FEEDBACK

Daily
Averages
Monthly
Summary
United States of America

PACIFIC, MISSOURI


Home > North America > United States > Missouri
Elevation: 580 feet     Latitude: 38 29N     Longitude: 090 44W

WEATHER
 
SELECT A DAY
Number of Records: 56,062;   Date Range: 2/9/12 - 9/30/14
 
SHARE

PRINT THIS DATA

[ ← Previous Day ]
WEATHER ALMANAC - JANUARY 7, 2013
[ Next Day → ]
[ °C ]   °F
Weather ElementAverageHighLow
Temperature33.5 °F48.2 °F (2:15 pm)19.4 °F (6:35 am)
Dewpoint23 °F28.4 °F (3:35 pm)17.6 °F (6:35 am)
Humidity68.2 %100 % (6:55 am)40 % (2:15 pm)
Barometer30.28 in30.39 in (2:15 am)30.14 in (11:15 pm)
Wind Speed5.3 mph12.7 mph (12:15 pm)
Weather ElementAverage
Visibility9.8 mi
Wind DirectionESE (107.1 °)

Weather ElementTotal
Precipitation---
Heating Degree Days31.2 (Base 65)
Averaged from 59 records on January 7, 2013
WEATHER CONDITIONS BREAKOUT
WIND DIRECTION BREAKOUT
WEATHER BY HOUR - JANUARY 7, 2013
[ °C ]   °F
Local TimeTemperatureDewpointHumidityBarometerVisibilityWind DirectionWind SpeedGust SpeedPrecipitationEventsConditions
12:35 AM23.0 °F21.2 °F93 %30.38 in10.0 miCalmClear
12:55 AM23.0 °F21.2 °F93 %30.38 in10.0 miCalmClear
1:35 AM23.0 °F21.2 °F93 %30.38 in10.0 miCalmClear
1:55 AM23.0 °F21.2 °F93 %30.38 in10.0 miCalmClear
2:15 AM23.0 °F19.4 °F86 %30.39 in10.0 miCalmClear
2:35 AM23.0 °F19.4 °F86 %30.39 in10.0 miSE (140°)3.5 mphClear
2:55 AM23.0 °F19.4 °F86 %30.39 in10.0 miCalmClear
3:15 AM23.0 °F19.4 °F86 %30.39 in10.0 miCalmClear
3:35 AM23.0 °F19.4 °F86 %30.39 in10.0 miCalmClear
3:55 AM23.0 °F19.4 °F86 %30.38 in10.0 miSE (130°)3.5 mphClear
4:15 AM24.8 °F19.4 °F80 %30.38 in10.0 miCalmClear
4:35 AM23.0 °F19.4 °F86 %30.37 in10.0 miSE (140°)4.6 mphClear
4:55 AM24.8 °F19.4 °F80 %30.37 in10.0 miSSE (150°)3.5 mphClear
5:15 AM23.0 °F19.4 °F86 %30.36 in10.0 miSE (140°)4.6 mphClear
6:35 AM19.4 °F17.6 °F93 %30.36 in9.0 miCalmClear
6:55 AM19.4 °F19.4 °F100 %30.36 in9.0 miCalmClear
7:15 AM19.4 °F19.4 °F100 %30.36 in8.0 miCalmClear
7:35 AM19.4 °F17.6 °F93 %30.37 in6.0 miCalmClear
7:55 AM21.2 °F19.4 °F93 %30.37 in7.0 miCalmClear
8:15 AM23.0 °F19.4 °F86 %30.37 in9.0 miSE (140°)5.8 mphClear
8:35 AM24.8 °F21.2 °F86 %30.37 in8.0 miCalmClear
9:15 AM26.6 °F23.0 °F86 %30.37 in10.0 miSSE (150°)6.9 mphClear
9:35 AM28.4 °F23.0 °F80 %30.36 in10.0 miSE (140°)9.2 mphClear
9:55 AM30.2 °F24.8 °F80 %30.37 in10.0 miSSE (150°)9.2 mphClear
10:15 AM32.0 °F24.8 °F75 %30.37 in10.0 miSSE (150°)6.9 mphClear
10:35 AM32.0 °F24.8 °F75 %30.36 in10.0 miSSE (150°)6.9 mphClear
10:55 AM35.6 °F26.6 °F70 %30.35 in10.0 miSSE (150°)8.1 mphClear
11:15 AM37.4 °F24.8 °F60 %30.34 in10.0 miSSE (160°)9.2 mphClear
11:35 AM39.2 °F26.6 °F61 %30.32 in10.0 miSouth (170°)10.4 mphClear
11:55 AM41.0 °F26.6 °F57 %30.29 in10.0 miSouth (170°)11.5 mphClear
12:15 PM41.0 °F26.6 °F57 %30.27 in10.0 miSouth (170°)12.7 mphClear
12:35 PM42.8 °F26.6 °F53 %30.24 in10.0 miSouth (170°)12.7 mphClear
1:15 PM44.6 °F24.8 °F46 %30.22 in10.0 miSouth (180°)12.7 mphClear
1:35 PM46.4 °F26.6 °F46 %30.22 in10.0 miSouth (170°)6.9 mphClear
1:55 PM46.4 °F26.6 °F46 %30.22 in10.0 miSouth (180°)5.8 mphClear
2:15 PM48.2 °F24.8 °F40 %30.22 in10.0 miSSW (210°)8.1 mphClear
2:35 PM48.2 °F24.8 °F40 %30.21 in10.0 miSouth (170°)5.8 mphClear
2:55 PM48.2 °F26.6 °F43 %30.20 in10.0 miSouth (180°)8.1 mphClear
3:15 PM48.2 °F26.6 °F43 %30.20 in10.0 miSouth (170°)9.2 mphClear
3:35 PM46.4 °F28.4 °F50 %30.20 in10.0 miSouth (170°)9.2 mphClear
3:55 PM44.6 °F26.6 °F49 %30.19 in10.0 miSSE (160°)8.1 mphClear
4:15 PM44.6 °F26.6 °F49 %30.19 in10.0 miSE (140°)4.6 mphClear
4:35 PM44.6 °F24.8 °F46 %30.18 in10.0 miSE (130°)4.6 mphClear
5:15 PM41.0 °F24.8 °F53 %30.18 in10.0 miCalmClear
5:55 PM39.2 °F24.8 °F56 %30.17 in10.0 miSE (130°)5.8 mphClear
6:15 PM41.0 °F24.8 °F53 %30.17 in10.0 miSE (140°)8.1 mphClear
6:35 PM39.2 °F24.8 °F56 %30.17 in10.0 miSE (140°)8.1 mphClear
6:55 PM39.2 °F24.8 °F56 %30.17 in10.0 miSE (140°)6.9 mphClear
7:15 PM39.2 °F24.8 °F56 %30.16 in10.0 miSE (140°)6.9 mphClear
7:35 PM39.2 °F24.8 °F56 %30.16 in10.0 miSE (140°)6.9 mphClear
8:15 PM37.4 °F23.0 °F56 %30.15 in10.0 miSE (140°)8.1 mphClear
8:35 PM37.4 °F23.0 °F56 %30.16 in10.0 miSE (140°)9.2 mphClear
8:55 PM37.4 °F23.0 °F56 %30.16 in10.0 miSE (130°)8.1 mphClear
9:15 PM37.4 °F23.0 °F56 %30.16 in10.0 miSE (130°)8.1 mphClear
9:35 PM37.4 °F23.0 °F56 %30.16 in10.0 miSE (130°)6.9 mphClear
10:15 PM37.4 °F23.0 °F56 %30.16 in10.0 miCalmClear
11:15 PM35.6 °F23.0 °F60 %30.14 in10.0 miSE (140°)5.8 mphClear
11:35 PM35.6 °F23.0 °F60 %30.14 in10.0 miSE (140°)5.8 mphClear
11:55 PM35.6 °F23.0 °F60 %30.14 in10.0 miESE (110°)3.5 mphClear
Hourly data recorded from KFYG, located miles away from Pacific, Missouri







STORIES FROM OUR PARTNERS